Waarnemingen

Advertentie
Mijn weer
AWG, Nederland (6208): temperatuur & dauwpunt: 12.12.2017 06:00:00 - 18.12.2017 06:00:00 (CET)AWG, Nederland (6208): windsnelheid & windstoten: 12.12.2017 06:00:00 - 18.12.2017 06:00:00 (CET)AWG, Nederland (6208): windrichting: 12.12.2017 06:00:00 - 18.12.2017 06:00:00 (CET)AWG, Nederland (6208): luchtdruk: 12.12.2017 06:00:00 - 18.12.2017 06:00:00 (CET)AWG, Nederland (6208): zicht: 12.12.2017 06:00:00 - 18.12.2017 06:00:00 (CET)
Datum & Tijd tt [°C] td [°C] ff [km/u] ff [kn] fx [km/u] fx [kn] dd ppp [hPa] vv [km]
18.12.2017 06:00:00 8,1 5,6 50 27 58 31 N 1016,0 8
18.12.2017 05:00:00 7,4 6,6 54 29 58 31 N 1014,7 6
18.12.2017 04:00:00 5,0 5,0 9 5 25 14 - 1014,8 2,3
18.12.2017 03:00:00 3,6 3,3 31 17 40 21 ZZW 1014,2 3,1
18.12.2017 02:00:00 3,4 3,0 39 21 54 29 Z 1013,5 2,4
18.12.2017 01:00:00 3,5 2,8 54 29 58 31 ZZW 1013,1 5
18.12.2017 00:00:00 3,2 2,6 52 28 58 31 ZZW 1013,6 3,7
17.12.2017 23:00:00 3,0 2,1 54 29 58 31 Z 1014,3 3,8
17.12.2017 22:00:00 3,6 2,5 55 30 58 31 Z 1015,5 2,4
17.12.2017 21:00:00 4,3 2,6 44 24 47 25 ZZW 1016,9 7
17.12.2017 20:00:00 4,4 2,6 42 23 47 25 ZZW 1017,2 10
17.12.2017 19:00:00 4,2 2,3 41 22 - - ZZW 1017,9 10
17.12.2017 18:00:00 4,0 2,1 39 21 40 21 ZZW 1018,8 10
17.12.2017 17:00:00 4,3 2,1 31 17 36 19 ZZW 1019,5 10
17.12.2017 16:00:00 4,9 2,8 22 12 25 14 ZW 1020,1 10
17.12.2017 15:00:00 5,1 2,6 18 10 22 12 WZW 1020,8 10
17.12.2017 14:00:00 5,9 2,7 11 6 14 8 WZW 1020,8 10
17.12.2017 13:00:00 6,4 2,4 8 4 11 6 W 1020,9 10
17.12.2017 12:00:00 5,8 3,2 5 3 7 4 W 1021,1 10
17.12.2017 11:00:00 6,0 1,6 5 3 29 16 NW 1021,3 10
17.12.2017 10:00:00 5,6 2,6 8 4 14 8 WZW 1021,1 10
17.12.2017 09:00:00 5,3 2,5 4 2 43 23 - 1020,4 10
17.12.2017 08:00:00 6,3 1,8 22 12 40 21 NW 1019,5 10
17.12.2017 07:00:00 5,8 1,9 28 15 29 16 NNW 1019,1 10
17.12.2017 06:00:00 6,3 0,2 39 21 40 21 N 1018,6 10
17.12.2017 05:00:00 5,9 2,0 34 18 40 21 NW 1017,7 10
17.12.2017 04:00:00 5,9 0,5 31 17 36 19 NNW 1017,4 10
17.12.2017 03:00:00 5,5 1,3 34 18 40 21 NNW 1017,1 10
17.12.2017 02:00:00 6,2 1,9 31 17 36 19 NW 1016,1 10
17.12.2017 01:00:00 6,2 1,6 31 17 43 23 NW 1015,7 10
17.12.2017 00:00:00 5,5 1,4 39 21 40 21 NW 1014,9 10
16.12.2017 23:00:00 5,6 1,1 44 24 50 27 NW 1014,3 10
16.12.2017 22:00:00 5,6 2,3 22 12 54 29 WNW 1013,7 10
16.12.2017 21:00:00 5,2 2,2 29 16 43 23 WNW 1013,1 10
16.12.2017 20:00:00 4,7 0,5 55 30 54 29 NW 1012,2 10
16.12.2017 19:00:00 4,4 1,2 46 25 54 29 WNW 1011,7 10
16.12.2017 18:00:00 6,3 1,3 35 19 54 29 WNW 1010,8 10
16.12.2017 17:00:00 5,8 1,0 34 18 61 33 NW 1010,9 10
16.12.2017 16:00:00 5,7 1,7 34 18 43 23 NW 1010,1 10
16.12.2017 15:00:00 5,4 2,0 29 16 47 25 NNW 1009,5 10
16.12.2017 14:00:00 5,2 2,1 46 25 47 25 N 1009,1 10
16.12.2017 13:00:00 5,7 2,0 35 19 43 23 WNW 1008,5 10
16.12.2017 12:00:00 5,7 2,1 34 18 43 23 NW 1008,2 10
16.12.2017 11:00:00 6,2 1,6 35 19 50 27 NW 1007,7 10
16.12.2017 10:00:00 5,7 1,9 41 22 50 27 WNW 1006,8 10
16.12.2017 09:00:00 5,3 1,3 63 34 61 33 NW 1006,0 10
16.12.2017 08:00:00 5,6 1,5 44 24 54 29 WNW 1005,5 10
16.12.2017 07:00:00 5,5 1,8 42 23 47 25 N 1005,2 10
16.12.2017 06:00:00 6,2 1,4 34 18 50 27 NW 1004,4 10
16.12.2017 05:00:00 6,3 0,9 41 22 47 25 NW 1004,0 10
16.12.2017 04:00:00 6,1 1,4 41 22 47 25 NW 1003,9 10
16.12.2017 03:00:00 6,6 1,5 31 17 40 21 NNW 1003,4 10
16.12.2017 02:00:00 6,8 1,9 31 17 43 23 N 1002,6 10
16.12.2017 01:00:00 5,8 3,2 13 7 18 10 WNW 1002,4 10
16.12.2017 00:00:00 3,8 2,8 15 8 18 10 WZW 1002,1 10
15.12.2017 23:00:00 4,0 3,0 18 10 22 12 W 1001,8 10
15.12.2017 22:00:00 3,5 2,5 18 10 18 10 ZW 1001,5 9
15.12.2017 21:00:00 3,8 2,0 18 10 18 10 ZZW 1000,6 10
15.12.2017 20:00:00 3,6 1,8 15 8 14 8 ZZW 1000,1 10
15.12.2017 19:00:00 3,4 2,2 13 7 14 8 ZW 999,4 10
15.12.2017 18:00:00 3,3 2,4 11 6 14 8 ZW 998,7 10
15.12.2017 17:00:00 3,0 2,1 9 5 14 8 ZW 998,3 10
15.12.2017 16:00:00 3,1 2,4 9 5 14 8 WZW 997,5 6
15.12.2017 15:00:00 2,7 2,3 9 5 14 8 ZW 996,7 7
15.12.2017 14:00:00 2,4 2,2 11 6 18 10 ZZW 996,0 0,5
15.12.2017 13:00:00 2,6 2,4 16 9 32 18 ZZW 995,0 1,8
15.12.2017 12:00:00 2,8 2,1 29 16 36 19 ZZW 994,0 4,2
15.12.2017 11:00:00 2,8 2,0 34 18 36 19 ZZW 993,5 2,8
15.12.2017 10:00:00 2,7 2,0 34 18 36 19 Z 992,5 2,4
15.12.2017 09:00:00 2,5 1,9 37 20 36 19 ZZW 991,8 3,1
15.12.2017 08:00:00 2,3 1,9 37 20 36 19 Z 991,0 2,5
15.12.2017 07:00:00 1,8 1,8 31 17 40 21 ZZW 990,5 0,8
15.12.2017 06:00:00 1,6 1,4 39 21 43 23 ZZW 989,8 1,0
15.12.2017 05:00:00 1,8 1,2 35 19 40 21 Z 989,1 2,5
15.12.2017 04:00:00 2,2 1,5 34 18 32 18 ZZW 988,5 3,9
15.12.2017 03:00:00 2,4 1,8 31 17 32 18 ZZW 988,2 3,2
15.12.2017 02:00:00 2,3 1,7 31 17 36 19 ZZW 987,9 2,9
15.12.2017 01:00:00 2,4 1,7 31 17 36 19 ZZW 987,5 3,8
15.12.2017 00:00:00 3,0 2,0 34 18 40 21 ZZW 987,4 5
14.12.2017 23:00:00 3,3 2,2 24 13 40 21 ZZW 987,4 7
14.12.2017 22:00:00 3,4 2,2 35 19 43 23 ZZW 986,9 8
14.12.2017 21:00:00 3,5 1,9 34 18 40 21 - 987,1 10
14.12.2017 20:00:00 4,1 2,6 37 20 43 23 ZZW 987,0 10
14.12.2017 19:00:00 4,6 3,0 24 13 36 19 ZZW 987,0 10
14.12.2017 18:00:00 4,5 2,8 24 13 29 16 - 987,2 10
14.12.2017 17:00:00 4,6 2,4 28 15 29 16 ZZW 987,5 10
14.12.2017 16:00:00 4,9 2,1 26 14 29 16 WZW 987,4 10
14.12.2017 15:00:00 4,9 1,7 29 16 32 18 WZW 987,5 10
14.12.2017 14:00:00 4,4 1,5 31 17 40 21 WZW 987,5 10
14.12.2017 13:00:00 4,9 1,8 34 18 40 21 WZW 987,6 10
14.12.2017 12:00:00 5,0 1,5 34 18 40 21 WZW 987,4 10
14.12.2017 11:00:00 4,3 1,4 34 18 47 25 WZW 987,5 10
14.12.2017 10:00:00 4,9 1,5 41 22 43 23 W 987,0 10
14.12.2017 09:00:00 4,2 1,2 34 18 50 27 W 986,2 10
14.12.2017 08:00:00 5,1 1,2 29 16 43 23 WNW 985,8 10
14.12.2017 07:00:00 4,0 0,9 50 27 50 27 WNW 985,1 10
14.12.2017 06:00:00 4,5 1,1 29 16 36 19 ZW 984,6 10
14.12.2017 05:00:00 5,8 1,7 29 16 40 21 W 984,1 10
14.12.2017 04:00:00 6,6 1,7 37 20 43 23 W 983,7 10
14.12.2017 03:00:00 6,7 1,9 34 18 50 27 W 983,3 10
14.12.2017 02:00:00 6,3 1,5 42 23 54 29 WNW 982,8 10
14.12.2017 01:00:00 7,0 2,2 48 26 54 29 WNW 982,4 10
14.12.2017 00:00:00 7,0 2,6 34 18 54 29 WNW 981,5 10
13.12.2017 23:00:00 4,7 2,9 50 27 58 31 W 981,1 7
13.12.2017 22:00:00 5,4 4,4 55 30 65 35 - 981,5 2,3
13.12.2017 21:00:00 4,9 4,3 48 26 54 29 Z 982,8 2,6
13.12.2017 20:00:00 4,9 4,2 48 26 58 31 Z 984,6 3,1
13.12.2017 19:00:00 5,4 4,7 54 29 54 29 ZZW 986,7 6
13.12.2017 18:00:00 4,9 4,5 42 23 43 23 Z 988,5 5
13.12.2017 17:00:00 4,8 4,3 41 22 40 21 ZZW 989,9 6
13.12.2017 16:00:00 4,8 4,1 35 19 40 21 ZZW 991,3 8
13.12.2017 15:00:00 4,7 4,0 35 19 43 23 - 991,9 10
13.12.2017 14:00:00 4,3 3,6 37 20 58 31 ZZW 992,7 8
13.12.2017 13:00:00 4,3 3,4 55 30 65 35 ZZW 993,5 10
13.12.2017 12:00:00 3,8 2,8 61 33 65 35 ZZW 994,8 10
13.12.2017 11:00:00 3,1 2,2 63 34 68 37 Z 995,9 10
13.12.2017 10:00:00 3,0 1,9 63 34 68 37 Z 997,2 8
13.12.2017 09:00:00 2,8 1,6 63 34 65 35 Z 998,3 8
13.12.2017 08:00:00 2,6 1,3 63 34 68 37 Z 999,7 5
13.12.2017 07:00:00 2,6 1,4 63 34 65 35 ZZW 1000,7 7
13.12.2017 06:00:00 2,6 1,0 55 30 65 35 ZZW 1002,0 10
13.12.2017 05:00:00 2,3 0,6 57 31 61 33 Z 1003,1 10
13.12.2017 04:00:00 2,3 0,4 55 30 61 33 Z 1004,4 10
13.12.2017 03:00:00 1,8 0,1 54 29 58 31 Z 1005,4 10
13.12.2017 02:00:00 1,7 0,3 55 30 58 31 ZZW 1006,3 10
13.12.2017 01:00:00 1,9 1,1 54 29 54 29 ZZW 1007,2 5
13.12.2017 00:00:00 1,8 1,1 52 28 54 29 ZZW 1007,7 4,4
12.12.2017 23:00:00 2,3 0,9 48 26 50 27 - 1008,3 10
12.12.2017 22:00:00 2,7 1,1 39 21 47 25 - 1008,7 10
12.12.2017 21:00:00 3,0 1,3 37 20 43 23 - 1008,5 10
12.12.2017 20:00:00 3,7 1,8 28 15 32 18 Z 1008,5 10
12.12.2017 19:00:00 4,2 2,0 29 16 32 18 ZZW 1008,4 10
12.12.2017 18:00:00 4,2 1,5 24 13 29 16 ZW 1008,4 10
12.12.2017 17:00:00 4,9 1,5 21 11 29 16 W 1007,7 10
12.12.2017 16:00:00 6,4 -1,9 18 10 22 12 W 1006,7 10
12.12.2017 15:00:00 6,4 -3,2 26 14 25 14 WNW 1005,5 10
12.12.2017 14:00:00 6,2 -1,7 22 12 29 16 NW 1004,6 10
12.12.2017 13:00:00 6,2 -2,6 29 16 36 19 NW 1003,7 10
12.12.2017 12:00:00 6,2 -0,8 37 20 40 21 N 1002,6 10
12.12.2017 11:00:00 4,6 2,3 11 6 43 23 N 1002,2 10
12.12.2017 10:00:00 5,0 1,9 37 20 50 27 N 1000,4 10
12.12.2017 09:00:00 3,4 0,9 59 32 61 33 NNW 999,0 10
12.12.2017 08:00:00 4,1 1,7 46 25 58 31 N 997,0 8
12.12.2017 07:00:00 4,7 1,9 48 26 61 33 N 995,1 10
12.12.2017 06:00:00 4,0 1,7 48 26 61 33 NNW 993,6 10

tt = temperatuur
td = dauwpunt
ff = windsnelheid
fx = windstoten
dd = windrichting
ppp = luchtdruk
vv = zicht

Weerstations in de omgeving